STARLINK-34812, 66026

Orbit data source: Space-Track

STARLINK-34812, 66026 is a payload satellite owned by SpaceX/Seattle (US) in LEO that was launched on Thu, 16 Oct 2025 UTC via an FALCON 9 launch vehicle from the Air Force Eastern Test Range (AFETR). Payload-class satellites include a variety of spacecraft equipped with specific instruments for various scientific and technological missions. These include communications satellites like Starlink; space stations such as the ISS; scientific satellites like the Hubble; Earth observation satellites from companies like Planet Labs, Umbra, and HawkEye 360; GPS; miniature CubeSats for education and research; and military/defense satellites.

Loading next visibility...
Identifier
66026, 2025-232X
Orbit
LEO
Country
Flag of USUS
Related business
Manufacturer
SpaceX/Seattle
Mission
Operational Commercial Communications
Bus & Motor
STARLINK V2MO, Unknown motor
Mass
575 kg wet, ~530 kg dry
Launch date (UTC)
2025-10-16 (8 months ago)
Launch vehicle
FALCON 9
Launch site
Air Force Eastern Test Range (AFETR)
Object type
Payload
Rocket body
Debris
Shape & HBR
Box + 2 Pan, 17.7 m
Radar Cross Section
36.964 m², Large (>1 m²)

Expand to show TLE details & history
Last TLE update: 1 day ago

TLE from 1 day ago
0 STARLINK-34812
1 66026U 25232X   26170.77494759  .00013608  00000-0  41323-3 0  9996
2 66026  53.1596 349.1388 0001256  81.6964 278.4181 15.34393092 39063
Epoch: 2026-06-19T18:35Z
TLE epoch observation values (Epoch: 2026-06-19T18:35:55.471Z)
Latitude
-0.00004°
Longitude
162.15855°
Altitude
463.499 km
Speed
7.636 km/s
True Right ascension
23h 16m 33s
True Declination
0° 00' 00"
Sunlit
Object was in daylight at epoch
Visualization orbit readout
Latitude
Unknown
Longitude
Unknown
Altitude
Unknown
Speed
Unknown
Apparent Right ascension
Unknown
Apparent Declination
Unknown
Sunlit
N/A
Visualization observer readout
Local Sidereal Time
08:45:55
Azimuth
Unknown
Elevation
Unknown
Doppler factor
Unknown
Orbital elements
Apogee altitude
463.84 km
Perigee altitude
462.121 km
Semi-major axis
6,841.118 km
Eccentricity
0.00013
Inclination
53.1596°
RAAN
349.1388°
Arg. of periapsis
81.6964°
True anomaly
278.40386°
Mean anomaly
278.4181°
Eccentric anomaly
278.41098°
Mean motion
3.83577 °/min
Orbital period
93.85 mins
BSTAR
0.00041323
Loading maneuver chart data...
Computing Atmospheric mass density...
Loading historical data...
Loading historical data...
Loading historical data...
Loading historical data...
Loading historical data...
Loading historical data...
Loading historical data...

Documentation

Showing up to 5 results
|